FW8089 Weather Reports


time (UTC)temp
C
wind
direction
speed
KPH
gust
KPH
rain 1hr
cm
rain 24hr
cm
rain mn
cm
humidity
%
barometer
mb
20260504032947 14 306 4.8 11.3 0.00 0.00 0.00 72 1033.9
20260504032428 14 313 4.8 11.3 0.00 0.00 0.00 72 1033.9
20260504031328 14 5 3.2 11.3 0.00 0.00 0.00 72 1033.9
20260504030153 14 323 3.2 9.7 0.00 0.00 0.00 72 1033.9
20260504025650 14 352 4.8 9.7 0.00 0.00 0.00 72 1033.9
20260504025155 14 352 4.8 9.7 0.00 0.00 0.00 71 1033.9
20260504024636 15 355 3.2 9.7 0.00 0.00 0.00 71 1034.0
20260504023507 15 66 3.2 9.7 0.00 0.00 0.00 73 1034.1
20260504023010 15 327 6.4 12.9 0.00 0.00 0.00 72 1034.1
20260504022453 15 353 6.4 12.9 0.00 0.00 0.00 71 1034.1
20260504021936 15 343 4.8 12.9 0.00 0.00 0.00 72 1034.1
20260504020822 15 355 4.8 14.5 0.00 0.00 0.00 71 1034.1
20260504015700 15 239 6.4 14.5 0.00 0.00 0.00 71 1034.2
20260504015158 15 341 6.4 12.9 0.00 0.00 0.00 71 1034.3
20260504014639 15 331 4.8 12.9 0.00 0.00 0.00 71 1034.2
20260504014123 15 357 4.8 12.9 0.00 0.00 0.00 71 1034.2
20260504013631 15 246 4.8 12.9 0.00 0.00 0.00 71 1034.3
20260504013133 15 10 4.8 12.9 0.00 0.00 0.00 70 1034.3
20260504012614 15 348 4.8 11.3 0.00 0.00 0.00 70 1034.3
20260504012108 15 324 4.8 11.3 0.00 0.00 0.00 70 1034.4
20260504011612 15 350 4.8 11.3 0.00 0.00 0.00 70 1034.4
20260504011052 15 301 4.8 11.3 0.00 0.00 0.00 70 1034.5
20260504010555 15 7 4.8 11.3 0.00 0.00 0.00 70 1034.5
20260504010037 15 19 4.8 11.3 0.00 0.00 0.00 70 1034.6
20260504005523 15 345 4.8 11.3 0.00 0.00 0.00 70 1034.6
20260504005009 15 327 4.8 11.3 0.00 0.00 0.00 71 1034.7
20260504004501 15 0 3.2 9.7 0.00 0.00 0.00 71 1034.7
20260504004000 15 338 3.2 11.3 0.00 0.00 0.00 71 1034.8
20260504003442 15 299 3.2 11.3 0.00 0.00 0.00 71 1034.8
20260504002933 15 345 4.8 14.5 0.00 0.00 0.00 71 1034.8
20260504002419 15 12 4.8 14.5 0.00 0.00 0.00 71 1034.9
20260504001924 15 26 6.4 14.5 0.00 0.00 0.00 71 1034.9
20260504001419 15 56 6.4 12.9 0.00 0.00 0.00 71 1034.9
20260504000903 15 29 6.4 11.3 0.00 0.00 0.00 70 1035.0
20260504000410 15 51 6.4 14.5 0.00 0.00 0.00 71 1035.1
20260503235252 15 51 6.4 14.5 0.00 0.00 0.00 71 1035.1
20260503234112 15 7 6.4 11.3 0.00 0.00 0.00 69 1035.2
20260503233556 15 24 4.8 11.3 0.00 0.00 0.00 70 1035.2
20260503232437 15 0 4.8 9.7 0.00 0.00 0.00 71 1035.3
20260503231945 15 348 4.8 12.9 0.00 0.00 0.00 71 1035.3
20260503231432 14 357 6.4 12.9 0.00 0.00 0.00 71 1035.3
20260503230915 14 29 6.4 12.9 0.00 0.00 0.00 71 1035.3
20260503230410 14 30 6.4 12.9 0.00 0.00 0.00 71 1035.3
20260503225857 14 33 6.4 12.9 0.00 0.00 0.00 71 1035.4
20260503225347 14 26 6.4 12.9 0.00 0.00 0.00 71 1035.3
20260503224219 14 40 4.8 11.3 0.00 0.00 0.00 72 1035.2
20260503223105 14 28 6.4 14.5 0.00 0.00 0.00 72 1035.3
20260503222559 13 21 8.0 14.5 0.00 0.00 0.00 72 1035.3
20260503222039 13 70 8.0 14.5 0.00 0.00 0.00 72 1035.2
20260503220909 13 42 6.4 11.3 0.00 0.00 0.00 72 1035.3
20260503215752 13 42 4.8 12.9 0.00 0.00 0.00 73 1035.3
20260503215254 13 352 4.8 12.9 0.00 0.00 0.00 73 1035.3
20260503214737 13 49 6.4 12.9 0.00 0.00 0.00 73 1035.3
20260503214228 13 42 6.4 12.9 0.00 0.00 0.00 73 1035.3
20260503213718 13 33 6.4 11.3 0.00 0.00 0.00 74 1035.3
20260503211933 13 54 4.8 11.3 0.00 0.00 0.00 75 1035.3
20260503211425 13 35 4.8 11.3 0.00 0.00 0.00 75 1035.3
20260503210917 13 23 4.8 12.9 0.00 0.00 0.00 75 1035.2
20260503210410 13 51 6.4 12.9 0.00 0.00 0.00 75 1035.2
20260503205251 12 21 6.4 11.3 0.00 0.00 0.00 76 1035.2
20260503204734 12 35 6.4 11.3 0.00 0.00 0.00 76 1035.2
20260503204220 12 58 6.4 11.3 0.00 0.00 0.00 77 1035.3
20260503203717 12 33 6.4 11.3 0.00 0.00 0.00 77 1035.2
20260503203217 12 33 4.8 9.7 0.00 0.00 0.00 77 1035.2
20260503202703 12 61 3.2 8.0 0.00 0.00 0.00 78 1035.2
20260503202142 12 338 3.2 8.0 0.00 0.00 0.00 78 1035.1
20260503201642 12 40 3.2 8.0 0.00 0.00 0.00 78 1035.1
20260503201122 12 66 3.2 11.3 0.00 0.00 0.00 78 1035.0
20260503200011 12 47 4.8 11.3 0.00 0.00 0.00 79 1035.0
20260503195520 12 28 4.8 11.3 0.00 0.00 0.00 80 1035.0
20260503194401 11 56 3.2 9.7 0.00 0.00 0.00 81 1034.8
20260503193843 11 75 3.2 9.7 0.00 0.00 0.00 81 1034.8
20260503193340 11 26 3.2 8.0 0.00 0.00 0.00 82 1034.8
20260503192825 11 40 1.6 6.4 0.00 0.00 0.00 82 1034.8
20260503192332 11 33 1.6 4.8 0.00 0.00 0.00 82 1034.8
20260503191825 11 33 1.6 4.8 0.00 0.00 0.00 82 1034.7
20260503191324 11 75 1.6 6.4 0.00 0.00 0.00 82 1034.7
20260503190812 11 47 3.2 6.4 0.00 0.00 0.00 83 1034.7
20260503190254 10 49 3.2 6.4 0.00 0.00 0.00 83 1034.7
20260503185109 10 49 1.6 4.8 0.00 0.00 0.00 82 1034.7
20260503184611 10 94 1.6 4.8 0.00 0.00 0.00 82 1034.6
20260503184109 10 91 1.6 3.2 0.00 0.00 0.00 81 1034.7
20260503182951 10 106 0.0 3.2 0.00 0.00 0.00 81 1034.7
20260503182454 10 134 0.0 1.6 0.00 0.00 0.00 81 1034.6
20260503181954 10 40 0.0 3.2 0.00 0.00 0.00 81 1034.7
20260503181440 10 90 1.6 3.2 0.00 0.00 0.00 81 1034.6
20260503180937 10 107 1.6 4.8 0.00 0.00 0.00 81 1034.6
20260503180420 10 85 1.6 4.8 0.00 0.00 0.00 81 1034.6
20260503175906 10 107 1.6 4.8 0.00 0.00 0.00 81 1034.6
20260503175351 10 112 1.6 4.8 0.00 0.00 0.00 81 1034.6
20260503174851 10 98 0.0 3.2 0.00 0.00 0.00 80 1034.6
20260503174341 10 119 1.6 3.2 0.00 0.00 0.00 80 1034.6
20260503173206 10 104 1.6 4.8 0.00 0.00 0.00 80 1034.5
20260503172700 10 112 1.6 4.8 0.00 0.00 0.00 80 1034.4
20260503172154 10 106 1.6 4.8 0.00 0.00 0.00 80 1034.5
20260503171656 10 106 1.6 4.8 0.00 0.00 0.00 80 1034.5
20260503171200 10 106 1.6 4.8 0.00 0.00 0.00 80 1034.6
20260503170657 10 73 1.6 3.2 0.00 0.00 0.00 80 1034.6
20260503170151 10 82 0.0 3.2 0.00 0.00 0.00 80 1034.6
20260503140115 10 112 3.2 8.0 0.00 0.00 0.00 81 1035.1
20260503130658 10 99 1.6 6.4 0.00 0.00 0.00 82 1034.9
20260503120134 9 106 4.8 11.3 0.00 0.00 0.00 83 1034.8
20260503110622 8 114 4.8 9.7 0.00 0.00 0.00 85 1034.6
20260503110123 8 91 4.8 9.7 0.00 0.00 0.00 85 1034.6
20260503100140 8 120 4.8 9.7 0.00 0.00 0.00 86 1034.5
20260503081003 7 47 3.2 6.4 0.00 0.00 0.00 84 1033.9
20260503080511 7 73 1.6 6.4 0.00 0.00 0.00 84 1034.0
20260503072855 8 40 1.6 3.2 0.00 0.00 0.00 82 1033.8
20260503072359 8 58 1.6 3.2 0.00 0.00 0.00 81 1033.8
20260503071904 8 66 1.6 3.2 0.00 0.00 0.00 80 1033.7
20260503071402 8 66 1.6 3.2 0.00 0.00 0.00 80 1033.7
20260503070858 8 84 0.0 3.2 0.00 0.00 0.00 80 1033.7
20260503070354 8 77 0.0 3.2 0.00 0.00 0.00 80 1033.7
20260503054930 12 338 1.6 3.2 0.00 0.00 0.00 71 1033.6
20260503054417 12 5 1.6 8.0 0.00 0.00 0.00 71 1033.6
20260503053909 13 23 1.6 8.0 0.00 0.00 0.00 70 1033.6
20260503052725 13 37 1.6 8.0 0.00 0.00 0.00 70 1033.6
20260503051548 13 23 3.2 6.4 0.00 0.00 0.00 69 1033.5
20260503051045 13 350 1.6 6.4 0.00 0.00 0.00 68 1033.5
20260503050541 14 338 1.6 6.4 0.00 0.00 0.00 68 1033.5
20260503050032 14 345 1.6 6.4 0.00 0.00 0.00 68 1033.5
20260503045512 14 291 0.0 6.4 0.00 0.00 0.00 69 1033.5
20260503045022 14 246 0.0 8.0 0.00 0.00 0.00 70 1033.5
20260503043854 14 280 3.2 8.0 0.00 0.00 0.00 69 1033.5
20260503043334 14 261 1.6 8.0 0.00 0.00 0.00 69 1033.5
20260503042832 14 319 1.6 8.0 0.00 0.00 0.00 68 1033.5
20260503041711 15 329 3.2 9.7 0.00 0.00 0.00 67 1033.5
20260503041217 15 246 3.2 11.3 0.00 0.00 0.00 66 1033.5
20260503035427 16 287 4.8 11.3 0.00 0.00 0.00 64 1033.4
20260503034925 16 23 4.8 11.3 0.00 0.00 0.00 63 1033.4
20260503034410 16 327 3.2 11.3 0.00 0.00 0.00 63 1033.4
20260503033915 16 326 4.8 11.3 0.00 0.00 0.00 63 1033.4
20260503033408 16 292 3.2 11.3 0.00 0.00 0.00 63 1033.4